Back to catalog

DELTA 1 DEB

LostLEO
NORAD 42086·DEBRIS·🇺🇸 United States

Launched Dec 15, 1968 from Vandenberg Space Force Base

Loading…

Next Passes (next 24 hours)

TLE

StaleSource: Space-Track

Epoch: Aug 1, 2026, 23:24 UTC

1 42086U 68114N   26213.97561172  .00000130  00000-0  19113-2 0  9993
2 42086 102.1342 132.4875 0350455  13.9843 347.0609 11.93578991218558

Track DELTA 1 DEB in real time with AllMySat

Download on the App Store